Year,Month,Day,Hour,Minute,Value (Times are PST for temperature in C)
2008,07,12,00,00,14.80
2008,07,12,00,01,14.80
2008,07,12,00,02,14.80
2008,07,12,00,03,14.80
2008,07,12,00,04,14.80
2008,07,12,00,05,14.80
2008,07,12,00,06,14.80
2008,07,12,00,07,14.80
2008,07,12,00,08,14.90
2008,07,12,00,09,14.90
2008,07,12,00,10,14.90
2008,07,12,00,11,14.90
2008,07,12,00,12,14.90
2008,07,12,00,13,15.00
2008,07,12,00,14,15.00
2008,07,12,00,15,15.00
2008,07,12,00,16,15.00
2008,07,12,00,17,15.00
2008,07,12,00,18,15.00
2008,07,12,00,19,15.10
2008,07,12,00,20,15.10
2008,07,12,00,21,15.10
2008,07,12,00,22,15.10
2008,07,12,00,23,15.10
2008,07,12,00,24,15.10
2008,07,12,00,25,15.10
2008,07,12,00,26,15.20
2008,07,12,00,27,15.20
2008,07,12,00,28,15.20
2008,07,12,00,29,15.20
2008,07,12,00,30,15.20
2008,07,12,00,31,15.20
2008,07,12,00,32,15.20
2008,07,12,00,33,15.20
2008,07,12,00,34,15.20
2008,07,12,00,35,15.20
2008,07,12,00,36,15.20
2008,07,12,00,37,15.30
2008,07,12,00,38,15.30
2008,07,12,00,39,15.30
2008,07,12,00,40,15.30
2008,07,12,00,41,15.30
2008,07,12,00,42,15.30
2008,07,12,00,43,15.40
2008,07,12,00,44,15.40
2008,07,12,00,45,15.40
2008,07,12,00,46,15.50
2008,07,12,00,47,15.50
2008,07,12,00,48,15.50
2008,07,12,00,49,15.60
2008,07,12,00,50,15.60
2008,07,12,00,51,15.60
2008,07,12,00,52,15.70
2008,07,12,00,53,15.70
2008,07,12,00,54,15.80
2008,07,12,00,55,15.80
2008,07,12,00,56,15.80
2008,07,12,00,57,15.80
2008,07,12,00,58,15.80
2008,07,12,00,59,15.80
2008,07,12,01,00,15.80
2008,07,12,01,01,15.80
2008,07,12,01,02,15.80
2008,07,12,01,03,15.80
2008,07,12,01,04,15.90
2008,07,12,01,05,15.90
2008,07,12,01,06,15.90
2008,07,12,01,07,15.90
2008,07,12,01,08,15.90
2008,07,12,01,09,15.90
2008,07,12,01,10,15.90
2008,07,12,01,11,15.90
2008,07,12,01,12,15.90
2008,07,12,01,13,15.80
2008,07,12,01,14,15.80
2008,07,12,01,15,15.80
2008,07,12,01,16,15.80
2008,07,12,01,17,15.80
2008,07,12,01,18,15.80
2008,07,12,01,19,15.80
2008,07,12,01,20,15.80
2008,07,12,01,21,15.80
2008,07,12,01,22,15.80
2008,07,12,01,23,15.90
2008,07,12,01,24,15.90
2008,07,12,01,25,15.90
2008,07,12,01,26,15.90
2008,07,12,01,27,15.90
2008,07,12,01,28,15.90
2008,07,12,01,29,15.90
2008,07,12,01,30,15.80
2008,07,12,01,31,15.80
2008,07,12,01,32,15.80
2008,07,12,01,33,15.80
2008,07,12,01,34,15.80
2008,07,12,01,35,15.80
2008,07,12,01,36,15.70
2008,07,12,01,37,15.60
2008,07,12,01,38,15.60
2008,07,12,01,39,15.60
2008,07,12,01,40,15.50
2008,07,12,01,41,15.50
2008,07,12,01,42,15.50
2008,07,12,01,43,15.50
2008,07,12,01,44,15.50
2008,07,12,01,45,15.40
2008,07,12,01,46,15.40
2008,07,12,01,47,15.40
2008,07,12,01,48,15.40
2008,07,12,01,49,15.40
2008,07,12,01,50,15.30
2008,07,12,01,51,15.30
2008,07,12,01,52,15.30
2008,07,12,01,53,15.30
2008,07,12,01,54,15.30
2008,07,12,01,55,15.30
2008,07,12,01,56,15.30
2008,07,12,01,57,15.30
2008,07,12,01,58,15.30
2008,07,12,01,59,15.30
2008,07,12,02,00,15.20
2008,07,12,02,01,15.20
2008,07,12,02,02,15.20
2008,07,12,02,03,15.20
2008,07,12,02,04,15.20
2008,07,12,02,05,15.20
2008,07,12,02,06,15.20
2008,07,12,02,07,15.20
2008,07,12,02,08,15.20
2008,07,12,02,09,15.20
2008,07,12,02,10,15.20
2008,07,12,02,11,15.20
2008,07,12,02,12,15.20
2008,07,12,02,13,15.20
2008,07,12,02,14,15.20
2008,07,12,02,15,15.20
2008,07,12,02,16,15.20
2008,07,12,02,17,15.20
2008,07,12,02,18,15.20
2008,07,12,02,19,15.20
2008,07,12,02,20,15.20
2008,07,12,02,21,15.20
2008,07,12,02,22,15.20
2008,07,12,02,23,15.20
2008,07,12,02,24,15.20
2008,07,12,02,25,15.20
2008,07,12,02,26,15.20
2008,07,12,02,27,15.20
2008,07,12,02,28,15.20
2008,07,12,02,29,15.30
2008,07,12,02,30,15.30
2008,07,12,02,31,15.30
2008,07,12,02,32,15.30
2008,07,12,02,33,15.30
2008,07,12,02,34,15.30
2008,07,12,02,35,15.30
2008,07,12,02,36,15.30
2008,07,12,02,37,15.30
2008,07,12,02,38,15.30
2008,07,12,02,39,15.30
2008,07,12,02,40,15.30
2008,07,12,02,41,15.30
2008,07,12,02,42,15.30
2008,07,12,02,43,15.30
2008,07,12,02,44,15.30
2008,07,12,02,45,15.20
2008,07,12,02,46,15.20
2008,07,12,02,47,15.20
2008,07,12,02,48,15.20
2008,07,12,02,49,15.20
2008,07,12,02,50,15.10
2008,07,12,02,51,15.10
2008,07,12,02,52,15.10
2008,07,12,02,53,15.10
2008,07,12,02,54,15.10
2008,07,12,02,55,15.00
2008,07,12,02,56,15.00
2008,07,12,02,57,15.00
2008,07,12,02,58,15.00
2008,07,12,02,59,14.90
2008,07,12,03,00,14.90
2008,07,12,03,01,14.80
2008,07,12,03,02,14.80
2008,07,12,03,03,14.80
2008,07,12,03,04,14.80
2008,07,12,03,05,14.80
2008,07,12,03,06,14.80
2008,07,12,03,07,14.80
2008,07,12,03,08,14.70
2008,07,12,03,09,14.70
2008,07,12,03,10,14.60
2008,07,12,03,11,14.60
2008,07,12,03,12,14.50
2008,07,12,03,13,14.40
2008,07,12,03,14,14.30
2008,07,12,03,15,14.20
2008,07,12,03,16,14.20
2008,07,12,03,17,14.10
2008,07,12,03,18,14.10
2008,07,12,03,19,14.00
2008,07,12,03,20,14.00
2008,07,12,03,21,14.00
2008,07,12,03,22,14.00
2008,07,12,03,23,14.00
2008,07,12,03,24,14.00
2008,07,12,03,25,14.00
2008,07,12,03,26,14.00
2008,07,12,03,27,14.00
2008,07,12,03,28,14.00
2008,07,12,03,29,14.00
2008,07,12,03,30,14.00
2008,07,12,03,31,14.00
2008,07,12,03,32,14.00
2008,07,12,03,33,14.00
2008,07,12,03,34,14.10
2008,07,12,03,35,14.10
2008,07,12,03,36,14.10
2008,07,12,03,37,14.10
2008,07,12,03,38,14.10
2008,07,12,03,39,14.10
2008,07,12,03,40,14.10
2008,07,12,03,41,14.10
2008,07,12,03,42,14.10
2008,07,12,03,43,14.10
2008,07,12,03,44,14.10
2008,07,12,03,45,14.10
2008,07,12,03,46,14.10
2008,07,12,03,47,14.10
2008,07,12,03,48,14.10
2008,07,12,03,49,14.10
2008,07,12,03,50,14.10
2008,07,12,03,51,14.10
2008,07,12,03,52,14.10
2008,07,12,03,53,14.10
2008,07,12,03,54,14.10
2008,07,12,03,55,14.10
2008,07,12,03,56,14.10
2008,07,12,03,57,14.00
2008,07,12,03,58,14.00
2008,07,12,03,59,14.00
2008,07,12,04,00,14.00
2008,07,12,04,01,14.00
2008,07,12,04,02,14.00
2008,07,12,04,03,14.00
2008,07,12,04,04,13.90
2008,07,12,04,05,13.90
2008,07,12,04,06,13.90
2008,07,12,04,07,13.90
2008,07,12,04,08,13.80
2008,07,12,04,09,13.80
2008,07,12,04,10,13.80
2008,07,12,04,11,13.80
2008,07,12,04,12,13.80
2008,07,12,04,13,13.70
2008,07,12,04,14,13.70
2008,07,12,04,15,13.70
2008,07,12,04,16,13.70
2008,07,12,04,17,13.70
2008,07,12,04,18,13.70
2008,07,12,04,19,13.70
2008,07,12,04,20,13.70
2008,07,12,04,21,13.70
2008,07,12,04,22,13.70
2008,07,12,04,23,13.70
2008,07,12,04,24,13.70
2008,07,12,04,25,13.70
2008,07,12,04,26,13.70
2008,07,12,04,27,13.70
2008,07,12,04,28,13.70
2008,07,12,04,29,13.70
2008,07,12,04,30,13.70
2008,07,12,04,31,13.70
2008,07,12,04,32,13.70
2008,07,12,04,33,13.70
2008,07,12,04,34,13.70
2008,07,12,04,35,13.60
2008,07,12,04,36,13.60
2008,07,12,04,37,13.60
2008,07,12,04,38,13.60
2008,07,12,04,39,13.60
2008,07,12,04,40,13.60
2008,07,12,04,41,13.60
2008,07,12,04,42,13.50
2008,07,12,04,43,13.50
2008,07,12,04,44,13.50
2008,07,12,04,45,13.50
2008,07,12,04,46,13.50
2008,07,12,04,47,13.50
2008,07,12,04,48,13.50
2008,07,12,04,49,13.50
2008,07,12,04,50,13.50
2008,07,12,04,51,13.50
2008,07,12,04,52,13.50
2008,07,12,04,53,13.50
2008,07,12,04,54,13.50
2008,07,12,04,55,13.50
2008,07,12,04,56,13.50
2008,07,12,04,57,13.50
2008,07,12,04,58,13.50
2008,07,12,04,59,13.50
2008,07,12,05,00,13.50
2008,07,12,05,01,13.50
2008,07,12,05,02,13.50
2008,07,12,05,03,13.50
2008,07,12,05,04,13.50
2008,07,12,05,05,13.50
2008,07,12,05,06,13.50
2008,07,12,05,07,13.50
2008,07,12,05,08,13.50
2008,07,12,05,09,13.50
2008,07,12,05,10,13.50
2008,07,12,05,11,13.50
2008,07,12,05,12,13.50
2008,07,12,05,13,13.40
2008,07,12,05,14,13.40
2008,07,12,05,15,13.40
2008,07,12,05,16,13.40
2008,07,12,05,17,13.40
2008,07,12,05,18,13.40
2008,07,12,05,19,13.40
2008,07,12,05,20,13.40
2008,07,12,05,21,13.40
2008,07,12,05,22,13.50
2008,07,12,05,23,13.50
2008,07,12,05,24,13.50
2008,07,12,05,25,13.50
2008,07,12,05,26,13.50
2008,07,12,05,27,13.50
2008,07,12,05,28,13.50
2008,07,12,05,29,13.50
2008,07,12,05,30,13.50
2008,07,12,05,31,13.50
2008,07,12,05,32,13.50
2008,07,12,05,33,13.50
2008,07,12,05,34,13.50
2008,07,12,05,35,13.50
2008,07,12,05,36,13.50
2008,07,12,05,37,13.50
2008,07,12,05,38,13.50
2008,07,12,05,39,13.50
2008,07,12,05,40,13.50
2008,07,12,05,41,13.50
2008,07,12,05,42,13.50
2008,07,12,05,43,13.50
2008,07,12,05,44,13.50
2008,07,12,05,45,13.50
2008,07,12,05,46,13.50
2008,07,12,05,47,13.60
2008,07,12,05,48,13.60
2008,07,12,05,49,13.60
2008,07,12,05,50,13.60
2008,07,12,05,51,13.60
2008,07,12,05,52,13.60
2008,07,12,05,53,13.60
2008,07,12,05,54,13.60
2008,07,12,05,55,13.60
2008,07,12,05,56,13.60
2008,07,12,05,57,13.60
2008,07,12,05,58,13.60
2008,07,12,05,59,13.60
2008,07,12,06,00,13.60
2008,07,12,06,01,13.60
2008,07,12,06,02,13.60
2008,07,12,06,03,13.60
2008,07,12,06,04,13.60
2008,07,12,06,05,13.60
2008,07,12,06,06,13.60
2008,07,12,06,07,13.60
2008,07,12,06,08,13.60
2008,07,12,06,09,13.60
2008,07,12,06,10,13.70
2008,07,12,06,11,13.70
2008,07,12,06,12,13.70
2008,07,12,06,13,13.70
2008,07,12,06,14,13.80
2008,07,12,06,15,13.90
2008,07,12,06,16,13.90
2008,07,12,06,17,14.00
2008,07,12,06,18,14.00
2008,07,12,06,19,14.00
2008,07,12,06,20,14.00
2008,07,12,06,21,14.00
2008,07,12,06,22,14.10
2008,07,12,06,23,14.20
2008,07,12,06,24,14.20
2008,07,12,06,25,14.20
2008,07,12,06,26,14.30
2008,07,12,06,27,14.40
2008,07,12,06,28,14.40
2008,07,12,06,29,14.50
2008,07,12,06,30,14.50
2008,07,12,06,31,14.60
2008,07,12,06,32,14.60
2008,07,12,06,33,14.70
2008,07,12,06,34,14.70
2008,07,12,06,35,14.80
2008,07,12,06,36,14.80
2008,07,12,06,37,14.80
2008,07,12,06,38,14.80
2008,07,12,06,39,14.80
2008,07,12,06,40,14.90
2008,07,12,06,41,14.90
2008,07,12,06,42,14.90
2008,07,12,06,43,14.90
2008,07,12,06,44,15.00
2008,07,12,06,45,15.00
2008,07,12,06,46,15.00
2008,07,12,06,47,15.00
2008,07,12,06,48,15.00
2008,07,12,06,49,15.00
2008,07,12,06,50,15.00
2008,07,12,06,51,15.00
2008,07,12,06,52,15.00
2008,07,12,06,53,15.00
2008,07,12,06,54,15.00
2008,07,12,06,55,15.10
2008,07,12,06,56,15.10
2008,07,12,06,57,15.10
2008,07,12,06,58,15.10
2008,07,12,06,59,15.10
2008,07,12,07,00,15.10
2008,07,12,07,01,15.10
2008,07,12,07,02,15.10
2008,07,12,07,03,15.10
2008,07,12,07,04,15.10
2008,07,12,07,05,15.10
2008,07,12,07,06,15.10
2008,07,12,07,07,15.20
2008,07,12,07,08,15.20
2008,07,12,07,09,15.30
2008,07,12,07,10,15.30
2008,07,12,07,11,15.30
2008,07,12,07,12,15.30
2008,07,12,07,13,15.40
2008,07,12,07,14,15.50
2008,07,12,07,15,15.60
2008,07,12,07,16,15.60
2008,07,12,07,17,15.70
2008,07,12,07,18,15.80
2008,07,12,07,19,15.90
2008,07,12,07,20,16.10
2008,07,12,07,21,16.20
2008,07,12,07,22,16.30
2008,07,12,07,23,16.40
2008,07,12,07,24,16.50
2008,07,12,07,25,16.60
2008,07,12,07,26,16.80
2008,07,12,07,27,16.90
2008,07,12,07,28,17.00
2008,07,12,07,29,17.20
2008,07,12,07,30,17.30
2008,07,12,07,31,17.40
2008,07,12,07,32,17.50
2008,07,12,07,33,17.60
2008,07,12,07,34,17.70
2008,07,12,07,35,17.80
2008,07,12,07,36,17.90
2008,07,12,07,37,18.00
2008,07,12,07,38,18.10
2008,07,12,07,39,18.10
2008,07,12,07,40,18.20
2008,07,12,07,41,18.20
2008,07,12,07,42,18.20
2008,07,12,07,43,18.20
2008,07,12,07,44,18.40
2008,07,12,07,45,18.50
2008,07,12,07,46,18.60
2008,07,12,07,47,18.70
2008,07,12,07,48,18.70
2008,07,12,07,49,18.70
2008,07,12,07,50,18.70
2008,07,12,07,51,18.80
2008,07,12,07,52,18.80
2008,07,12,07,53,18.80
2008,07,12,07,54,18.80
2008,07,12,07,55,18.80
2008,07,12,07,56,18.90
2008,07,12,07,57,18.90
2008,07,12,07,58,18.90
2008,07,12,07,59,19.10
2008,07,12,08,00,19.20
2008,07,12,08,01,19.30
2008,07,12,08,02,19.40
2008,07,12,08,03,19.40
2008,07,12,08,04,19.50
2008,07,12,08,05,19.50
2008,07,12,08,06,19.60
2008,07,12,08,07,19.60
2008,07,12,08,08,19.70
2008,07,12,08,09,19.70
2008,07,12,08,10,19.70
2008,07,12,08,11,19.80
2008,07,12,08,12,19.80
2008,07,12,08,13,19.80
2008,07,12,08,14,19.80
2008,07,12,08,15,19.80
2008,07,12,08,16,19.80
2008,07,12,08,17,19.80
2008,07,12,08,18,19.80
2008,07,12,08,19,19.80
2008,07,12,08,20,19.80
2008,07,12,08,21,19.80
2008,07,12,08,22,19.80
2008,07,12,08,23,19.80
2008,07,12,08,24,19.90
2008,07,12,08,25,19.90
2008,07,12,08,26,19.90
2008,07,12,08,27,19.90
2008,07,12,08,28,19.90
2008,07,12,08,29,19.90
2008,07,12,08,30,19.90
2008,07,12,08,31,19.90
2008,07,12,08,32,20.00
2008,07,12,08,33,20.10
2008,07,12,08,34,20.10
2008,07,12,08,35,20.00
2008,07,12,08,36,19.90
2008,07,12,08,37,19.90
2008,07,12,08,38,19.90
2008,07,12,08,39,19.90
2008,07,12,08,40,19.90
2008,07,12,08,41,19.90
2008,07,12,08,42,19.70
2008,07,12,08,43,19.60
2008,07,12,08,44,19.50
2008,07,12,08,45,19.40
2008,07,12,08,46,19.20
2008,07,12,08,47,19.10
2008,07,12,08,48,18.90
2008,07,12,08,49,18.80
2008,07,12,08,50,18.70
2008,07,12,08,51,18.60
2008,07,12,08,52,18.60
2008,07,12,08,53,18.60
2008,07,12,08,54,18.70
2008,07,12,08,55,18.80
2008,07,12,08,56,18.80
2008,07,12,08,57,18.90
2008,07,12,08,58,18.90
2008,07,12,08,59,18.90
2008,07,12,09,00,18.90
2008,07,12,09,01,18.90
2008,07,12,09,02,18.90
2008,07,12,09,03,18.90
2008,07,12,09,04,19.00
2008,07,12,09,05,19.10
2008,07,12,09,06,19.20
2008,07,12,09,07,19.20
2008,07,12,09,08,19.20
2008,07,12,09,09,19.20
2008,07,12,09,10,19.00
2008,07,12,09,11,18.80
2008,07,12,09,12,18.70
2008,07,12,09,13,18.60
2008,07,12,09,14,18.50
2008,07,12,09,15,18.50
2008,07,12,09,16,18.50
2008,07,12,09,17,18.50
2008,07,12,09,18,18.60
2008,07,12,09,19,18.60
2008,07,12,09,20,18.70
2008,07,12,09,21,18.70
2008,07,12,09,22,18.70
2008,07,12,09,23,18.70
2008,07,12,09,24,18.80
2008,07,12,09,25,18.80
2008,07,12,09,26,18.80
2008,07,12,09,27,18.80
2008,07,12,09,28,18.80
2008,07,12,09,29,18.80
2008,07,12,09,30,18.80
2008,07,12,09,31,18.90
2008,07,12,09,32,18.90
2008,07,12,09,33,18.80
2008,07,12,09,34,18.80
2008,07,12,09,35,18.90
2008,07,12,09,36,18.80
2008,07,12,09,37,18.80
2008,07,12,09,38,18.70
2008,07,12,09,39,18.70
2008,07,12,09,40,18.80
2008,07,12,09,41,18.80
2008,07,12,09,42,18.80
2008,07,12,09,43,18.70
2008,07,12,09,44,18.70
2008,07,12,09,45,18.70
2008,07,12,09,46,18.80
2008,07,12,09,47,18.80
2008,07,12,09,48,18.90
2008,07,12,09,49,18.90
2008,07,12,09,50,18.90
2008,07,12,09,51,19.00
2008,07,12,09,52,19.10
2008,07,12,09,53,19.10
2008,07,12,09,54,19.10
2008,07,12,09,55,19.20
2008,07,12,09,56,19.20
2008,07,12,09,57,19.30
2008,07,12,09,58,19.40
2008,07,12,09,59,19.40
2008,07,12,10,00,19.50
2008,07,12,10,01,19.50
2008,07,12,10,02,19.60
2008,07,12,10,03,19.60
2008,07,12,10,04,19.60
2008,07,12,10,05,19.70
2008,07,12,10,06,19.70
2008,07,12,10,07,19.80
2008,07,12,10,08,19.80
2008,07,12,10,09,19.90
2008,07,12,10,10,19.90
2008,07,12,10,11,19.90
2008,07,12,10,12,19.90
2008,07,12,10,13,19.90
2008,07,12,10,14,19.90
2008,07,12,10,15,19.90
2008,07,12,10,16,20.10
2008,07,12,10,17,20.10
2008,07,12,10,18,20.10
2008,07,12,10,19,20.20
2008,07,12,10,20,20.20
2008,07,12,10,21,20.40
2008,07,12,10,22,20.60
2008,07,12,10,23,20.80
2008,07,12,10,24,20.90
2008,07,12,10,25,20.90
2008,07,12,10,26,21.00
2008,07,12,10,27,21.10
2008,07,12,10,28,21.30
2008,07,12,10,29,21.30
2008,07,12,10,30,21.40
2008,07,12,10,31,21.40
2008,07,12,10,32,21.60
2008,07,12,10,33,21.60
2008,07,12,10,34,21.70
2008,07,12,10,35,21.80
2008,07,12,10,36,21.90
2008,07,12,10,37,21.90
2008,07,12,10,38,21.90
2008,07,12,10,39,21.80
2008,07,12,10,40,21.80
2008,07,12,10,41,21.80
2008,07,12,10,42,21.80
2008,07,12,10,43,21.80
2008,07,12,10,44,21.80
2008,07,12,10,45,21.80
2008,07,12,10,46,21.70
2008,07,12,10,47,21.60
2008,07,12,10,48,21.50
2008,07,12,10,49,21.30
2008,07,12,10,50,21.30
2008,07,12,10,51,21.10
2008,07,12,10,52,21.10
2008,07,12,10,53,21.10
2008,07,12,10,54,21.10
2008,07,12,10,55,21.20
2008,07,12,10,56,21.30
2008,07,12,10,57,21.30
2008,07,12,10,58,21.40
2008,07,12,10,59,21.60
2008,07,12,11,00,21.60
2008,07,12,11,01,21.60
2008,07,12,11,02,21.60
2008,07,12,11,03,21.70
2008,07,12,11,04,21.70
2008,07,12,11,05,21.80
2008,07,12,11,06,21.80
2008,07,12,11,07,21.70
2008,07,12,11,08,21.80
2008,07,12,11,09,21.90
2008,07,12,11,10,22.00
2008,07,12,11,11,22.00
2008,07,12,11,12,22.10
2008,07,12,11,13,22.20
2008,07,12,11,14,22.20
2008,07,12,11,15,22.30
2008,07,12,11,16,22.30
2008,07,12,11,17,22.30
2008,07,12,11,18,22.30
2008,07,12,11,19,22.40
2008,07,12,11,20,22.40
2008,07,12,11,21,22.40
2008,07,12,11,22,22.40
2008,07,12,11,23,22.40
2008,07,12,11,24,22.40
2008,07,12,11,25,22.30
2008,07,12,11,26,22.20
2008,07,12,11,27,22.20
2008,07,12,11,28,22.20
2008,07,12,11,29,22.20
2008,07,12,11,30,22.10
2008,07,12,11,31,22.10
2008,07,12,11,32,22.00
2008,07,12,11,33,21.90
2008,07,12,11,34,21.80
2008,07,12,11,35,21.80
2008,07,12,11,36,21.80
2008,07,12,11,37,21.70
2008,07,12,11,38,21.70
2008,07,12,11,39,21.70
2008,07,12,11,40,21.80
2008,07,12,11,41,21.80
2008,07,12,11,42,21.90
2008,07,12,11,43,21.90
2008,07,12,11,44,21.90
2008,07,12,11,45,22.00
2008,07,12,11,46,22.10
2008,07,12,11,47,22.20
2008,07,12,11,48,22.30
2008,07,12,11,49,22.40
2008,07,12,11,50,22.40
2008,07,12,11,51,22.30
2008,07,12,11,52,22.20
2008,07,12,11,53,22.20
2008,07,12,11,54,22.00
2008,07,12,11,55,21.90
2008,07,12,11,56,21.80
2008,07,12,11,57,21.80
2008,07,12,11,58,21.80
2008,07,12,11,59,21.80
2008,07,12,12,00,21.80
2008,07,12,12,01,21.80
2008,07,12,12,02,21.80
2008,07,12,12,03,21.80
2008,07,12,12,04,21.70
2008,07,12,12,05,21.70
2008,07,12,12,06,21.60
2008,07,12,12,07,21.60
2008,07,12,12,08,21.60
2008,07,12,12,09,21.60
2008,07,12,12,10,21.70
2008,07,12,12,11,21.70
2008,07,12,12,12,21.70
2008,07,12,12,13,21.70
2008,07,12,12,14,21.70
2008,07,12,12,15,21.70
2008,07,12,12,16,21.70
2008,07,12,12,17,21.90
2008,07,12,12,18,22.00
2008,07,12,12,19,22.10
2008,07,12,12,20,22.10
2008,07,12,12,21,22.10
2008,07,12,12,22,22.10
2008,07,12,12,23,22.00
2008,07,12,12,24,21.90
2008,07,12,12,25,21.80
2008,07,12,12,26,21.80
2008,07,12,12,27,21.80
2008,07,12,12,28,21.90
2008,07,12,12,29,21.90
2008,07,12,12,30,22.00
2008,07,12,12,31,22.10
2008,07,12,12,32,22.20
2008,07,12,12,33,22.20
2008,07,12,12,34,22.20
2008,07,12,12,35,22.20
2008,07,12,12,36,22.20
2008,07,12,12,37,22.20
2008,07,12,12,38,22.20
2008,07,12,12,39,22.20
2008,07,12,12,40,22.10
2008,07,12,12,41,22.10
2008,07,12,12,42,22.20
2008,07,12,12,43,22.20
2008,07,12,12,44,22.10
2008,07,12,12,45,22.10
2008,07,12,12,46,22.00
2008,07,12,12,47,21.90
2008,07,12,12,48,21.90
2008,07,12,12,49,21.90
2008,07,12,12,50,21.90
2008,07,12,12,51,21.90
2008,07,12,12,52,21.90
2008,07,12,12,53,22.00
2008,07,12,12,54,22.00
2008,07,12,12,55,21.90
2008,07,12,12,56,22.00
2008,07,12,12,57,22.00
2008,07,12,12,58,22.10
2008,07,12,12,59,22.10
2008,07,12,13,00,22.20
2008,07,12,13,01,22.20
2008,07,12,13,02,22.20
2008,07,12,13,03,22.10
2008,07,12,13,04,22.10
2008,07,12,13,05,22.20
2008,07,12,13,06,22.20
2008,07,12,13,07,22.20
2008,07,12,13,08,22.10
2008,07,12,13,09,22.10
2008,07,12,13,10,22.00
2008,07,12,13,11,21.90
2008,07,12,13,12,22.00
2008,07,12,13,13,22.00
2008,07,12,13,14,22.10
2008,07,12,13,15,22.20
2008,07,12,13,16,22.30
2008,07,12,13,17,22.40
2008,07,12,13,18,22.50
2008,07,12,13,19,22.50
2008,07,12,13,20,22.60
2008,07,12,13,21,22.60
2008,07,12,13,22,22.70
2008,07,12,13,23,22.70
2008,07,12,13,24,22.80
2008,07,12,13,25,22.90
2008,07,12,13,26,22.90
2008,07,12,13,27,22.90
2008,07,12,13,28,22.90
2008,07,12,13,29,22.90
2008,07,12,13,30,22.90
2008,07,12,13,31,22.90
2008,07,12,13,32,22.80
2008,07,12,13,33,22.70
2008,07,12,13,34,22.60
2008,07,12,13,35,22.60
2008,07,12,13,36,22.60
2008,07,12,13,37,22.60
2008,07,12,13,38,22.60
2008,07,12,13,39,22.50
2008,07,12,13,40,22.50
2008,07,12,13,41,22.50
2008,07,12,13,42,22.50
2008,07,12,13,43,22.60
2008,07,12,13,44,22.60
2008,07,12,13,45,22.80
2008,07,12,13,46,23.00
2008,07,12,13,47,23.20
2008,07,12,13,48,23.30
2008,07,12,13,49,23.30
2008,07,12,13,50,23.30
2008,07,12,13,51,23.30
2008,07,12,13,52,23.30
2008,07,12,13,53,23.30
2008,07,12,13,54,23.20
2008,07,12,13,55,23.00
2008,07,12,13,56,22.90
2008,07,12,13,57,22.70
2008,07,12,13,58,22.60
2008,07,12,13,59,22.60
2008,07,12,14,00,22.50
2008,07,12,14,01,22.40
2008,07,12,14,02,22.50
2008,07,12,14,03,22.60
2008,07,12,14,04,22.60
2008,07,12,14,05,22.50
2008,07,12,14,06,22.60
2008,07,12,14,07,22.70
2008,07,12,14,08,22.80
2008,07,12,14,09,22.90
2008,07,12,14,10,22.80
2008,07,12,14,11,22.80
2008,07,12,14,12,22.70
2008,07,12,14,13,22.60
2008,07,12,14,14,22.70
2008,07,12,14,15,22.70
2008,07,12,14,16,22.70
2008,07,12,14,17,22.90
2008,07,12,14,18,23.00
2008,07,12,14,19,23.10
2008,07,12,14,20,23.30
2008,07,12,14,21,23.30
2008,07,12,14,22,23.30
2008,07,12,14,23,23.20
2008,07,12,14,24,23.20
2008,07,12,14,25,23.20
2008,07,12,14,26,23.20
2008,07,12,14,27,23.10
2008,07,12,14,28,23.10
2008,07,12,14,29,23.10
2008,07,12,14,30,23.00
2008,07,12,14,31,22.90
2008,07,12,14,32,22.90
2008,07,12,14,33,22.90
2008,07,12,14,34,22.90
2008,07,12,14,35,22.90
2008,07,12,14,36,22.90
2008,07,12,14,37,22.90
2008,07,12,14,38,22.80
2008,07,12,14,39,22.80
2008,07,12,14,40,22.80
2008,07,12,14,41,22.80
2008,07,12,14,42,22.90
2008,07,12,14,43,22.70
2008,07,12,14,44,22.50
2008,07,12,14,45,22.40
2008,07,12,14,46,22.40
2008,07,12,14,47,22.40
2008,07,12,14,48,22.30
2008,07,12,14,49,22.30
2008,07,12,14,50,22.20
2008,07,12,14,51,22.10
2008,07,12,14,52,22.00
2008,07,12,14,53,21.90
2008,07,12,14,54,21.90
2008,07,12,14,55,21.80
2008,07,12,14,56,21.80
2008,07,12,14,57,21.70
2008,07,12,14,58,21.70
2008,07,12,14,59,21.70
2008,07,12,15,00,21.60
2008,07,12,15,01,21.60
2008,07,12,15,02,21.60
2008,07,12,15,03,21.60
2008,07,12,15,04,21.60
2008,07,12,15,05,21.60
2008,07,12,15,06,21.70
2008,07,12,15,07,21.80
2008,07,12,15,08,21.80
2008,07,12,15,09,21.70
2008,07,12,15,10,21.80
2008,07,12,15,11,21.70
2008,07,12,15,12,21.70
2008,07,12,15,13,21.60
2008,07,12,15,14,21.60
2008,07,12,15,15,21.50
2008,07,12,15,16,21.30
2008,07,12,15,17,21.30
2008,07,12,15,18,21.30
2008,07,12,15,19,21.10
2008,07,12,15,20,21.00
2008,07,12,15,21,20.90
2008,07,12,15,22,20.90
2008,07,12,15,23,20.90
2008,07,12,15,24,20.90
2008,07,12,15,25,20.80
2008,07,12,15,26,20.80
2008,07,12,15,27,20.80
2008,07,12,15,28,20.80
2008,07,12,15,29,20.90
2008,07,12,15,30,20.90
2008,07,12,15,31,20.90
2008,07,12,15,32,21.00
2008,07,12,15,33,21.10
2008,07,12,15,34,21.30
2008,07,12,15,35,21.30
2008,07,12,15,36,21.30
2008,07,12,15,37,21.30
2008,07,12,15,38,21.30
2008,07,12,15,39,21.20
2008,07,12,15,40,21.10
2008,07,12,15,41,21.00
2008,07,12,15,42,21.00
2008,07,12,15,43,21.10
2008,07,12,15,44,21.20
2008,07,12,15,45,21.30
2008,07,12,15,46,21.30
2008,07,12,15,47,21.20
2008,07,12,15,48,21.20
2008,07,12,15,49,21.20
2008,07,12,15,50,21.30
2008,07,12,15,51,21.30
2008,07,12,15,52,21.20
2008,07,12,15,53,21.20
2008,07,12,15,54,21.30
2008,07,12,15,55,21.30
2008,07,12,15,56,21.30
2008,07,12,15,57,21.30
2008,07,12,15,58,21.30
2008,07,12,15,59,21.20
2008,07,12,16,00,21.10
2008,07,12,16,01,21.10
2008,07,12,16,02,21.20
2008,07,12,16,03,21.30
2008,07,12,16,04,21.30
2008,07,12,16,05,21.20
2008,07,12,16,06,21.20
2008,07,12,16,07,21.30
2008,07,12,16,08,21.30
2008,07,12,16,09,21.50
2008,07,12,16,10,21.60
2008,07,12,16,11,21.60
2008,07,12,16,12,21.60
2008,07,12,16,13,21.60
2008,07,12,16,14,21.60
2008,07,12,16,15,21.50
2008,07,12,16,16,21.40
2008,07,12,16,17,21.40
2008,07,12,16,18,21.40
2008,07,12,16,19,21.50
2008,07,12,16,20,21.60
2008,07,12,16,21,21.60
2008,07,12,16,22,21.60
2008,07,12,16,23,21.50
2008,07,12,16,24,21.30
2008,07,12,16,25,21.30
2008,07,12,16,26,21.20
2008,07,12,16,27,21.20
2008,07,12,16,28,21.20
2008,07,12,16,29,21.30
2008,07,12,16,30,21.20
2008,07,12,16,31,21.20
2008,07,12,16,32,21.30
2008,07,12,16,33,21.20
2008,07,12,16,34,21.20
2008,07,12,16,35,21.20
2008,07,12,16,36,21.20
2008,07,12,16,37,21.30
2008,07,12,16,38,21.30
2008,07,12,16,39,21.30
2008,07,12,16,40,21.30
2008,07,12,16,41,21.40
2008,07,12,16,42,21.50
2008,07,12,16,43,21.60
2008,07,12,16,44,21.70
2008,07,12,16,45,21.80
2008,07,12,16,46,21.70
2008,07,12,16,47,21.60
2008,07,12,16,48,21.40
2008,07,12,16,49,21.30
2008,07,12,16,50,21.20
2008,07,12,16,51,21.10
2008,07,12,16,52,21.10
2008,07,12,16,53,21.00
2008,07,12,16,54,21.00
2008,07,12,16,55,21.00
2008,07,12,16,56,20.90
2008,07,12,16,57,20.90
2008,07,12,16,58,20.90
2008,07,12,16,59,20.80
2008,07,12,17,00,20.90
2008,07,12,17,01,20.90
2008,07,12,17,02,21.00
2008,07,12,17,03,20.90
2008,07,12,17,04,20.80
2008,07,12,17,05,20.70
2008,07,12,17,06,20.60
2008,07,12,17,07,20.60
2008,07,12,17,08,20.50
2008,07,12,17,09,20.40
2008,07,12,17,10,20.50
2008,07,12,17,11,20.50
2008,07,12,17,12,20.60
2008,07,12,17,13,20.70
2008,07,12,17,14,20.70
2008,07,12,17,15,20.80
2008,07,12,17,16,21.00
2008,07,12,17,17,21.00
2008,07,12,17,18,21.00
2008,07,12,17,19,21.10